Location: El Gallo
(32.4380°N, 116.9347°W)
Time: 19:25:21
(UTC+00:00)

METEOR-M - Pass Details

Date: 01 October 2022
Orbit: 815 x 820 km, 98.6° (Epoch: 02 December)

Event Time Altitude Azimuth Distance (km) Brightness Sun altitude
Rises 12:02:00 0° 3° (N) 3,354 7.5 -21.8°
Reaches altitude 10° 12:04:27 10° 356° (N) 2,418 6.6 -21.3°
Maximum altitude 12:09:26 41° 288° (WNW) 1,175 4.5 -20.3°
Enters shadow 12:10:07 39° 269° (W) 1,209 4.5 -20.1°
